EN

Hourly Weather Obiszowek

Today, 16 May, Sunday

Time Temperature Precipitation Wind Pressure Humidity
00:00 +9°C° 0 mm 2 mps 743 mmHg 92%
01:00 +9°C° 0 mm 2 mps 743 mmHg 93%
02:00 +9°C° 0 mm 2 mps 743 mmHg 93%
03:00 +9°C° 0 mm 2 mps 743 mmHg 93%
04:00 +9°C° 0 mm 2 mps 743 mmHg 93%
05:00 +10°C° 0 mm 2 mps 744 mmHg 90%
06:00 +11°C° 0 mm 3 mps 744 mmHg 87%
07:00 +12°C° 0 mm 3 mps 744 mmHg 83%
08:00 +13°C° 0 mm 3 mps 744 mmHg 77%
09:00 +14°C° 0 mm 4 mps 744 mmHg 71%
10:00 +14°C° 0 mm 4 mps 744 mmHg 65%
11:00 +14°C° 0.1 mm 4 mps 744 mmHg 65%
12:00 +15°C° 0.1 mm 4 mps 744 mmHg 65%
13:00 +15°C° 0.1 mm 4 mps 744 mmHg 65%
14:00 +15°C° 0 mm 4 mps 744 mmHg 61%
15:00 +17°C° 0 mm 3 mps 743 mmHg 57%
16:00 +18°C° 0 mm 3 mps 743 mmHg 53%
17:00 +16°C° 0.1 mm 3 mps 743 mmHg 61%
18:00 +15°C° 0.1 mm 2 mps 743 mmHg 68%
19:00 +14°C° 0.1 mm 2 mps 743 mmHg 76%
20:00 +13°C° 0 mm 2 mps 743 mmHg 79%
21:00 +10°C° 0 mm 2 mps 743 mmHg 83%
22:00 +9°C° 0 mm 2 mps 743 mmHg 87%
23:00 +9°C° 0 mm 2 mps 743 mmHg 88%

Tomorrow, 17 May, Monday

Time Temperature Precipitation Wind Pressure Humidity
00:00 +9°C° 0 mm 2 mps 743 mmHg 88%
01:00 +8°C° 0 mm 3 mps 743 mmHg 89%
02:00 +9°C° 0 mm 3 mps 743 mmHg 90%
03:00 +9°C° 0 mm 3 mps 743 mmHg 90%
04:00 +9°C° 0 mm 3 mps 742 mmHg 91%
05:00 +10°C° 0 mm 3 mps 743 mmHg 88%
06:00 +10°C° 0 mm 3 mps 743 mmHg 86%
07:00 +11°C° 0 mm 3 mps 743 mmHg 84%
08:00 +12°C° 0 mm 3 mps 743 mmHg 80%
09:00 +12°C° 0 mm 3 mps 743 mmHg 77%
10:00 +13°C° 0 mm 3 mps 743 mmHg 73%
11:00 +13°C° 0.1 mm 3 mps 743 mmHg 73%
12:00 +14°C° 0.1 mm 3 mps 743 mmHg 72%
13:00 +14°C° 0.1 mm 4 mps 743 mmHg 72%
14:00 +14°C° 0.5 mm 4 mps 743 mmHg 74%
15:00 +14°C° 0.5 mm 4 mps 743 mmHg 77%
16:00 +14°C° 0.5 mm 4 mps 743 mmHg 80%
17:00 +13°C° 0.3 mm 4 mps 743 mmHg 82%
18:00 +12°C° 0.3 mm 4 mps 744 mmHg 85%
19:00 +12°C° 0.3 mm 4 mps 744 mmHg 87%
20:00 +11°C° 0 mm 4 mps 744 mmHg 88%
21:00 +10°C° 0 mm 4 mps 744 mmHg 90%
22:00 +9°C° 0 mm 5 mps 744 mmHg 91%
23:00 +8°C° 0 mm 5 mps 744 mmHg 91%

Day after tomorrow, 18 May, Tuesday

Time Temperature Precipitation Wind Pressure Humidity
00:00 +8°C° 0 mm 5 mps 745 mmHg 91%
01:00 +7°C° 0 mm 5 mps 745 mmHg 91%
02:00 +7°C° 0 mm 5 mps 745 mmHg 91%
03:00 +7°C° 0 mm 5 mps 745 mmHg 91%
04:00 +7°C° 0 mm 5 mps 745 mmHg 91%
05:00 +8°C° 0 mm 5 mps 745 mmHg 89%
06:00 +9°C° 0 mm 5 mps 745 mmHg 86%
07:00 +10°C° 0 mm 6 mps 745 mmHg 84%
08:00 +11°C° 0.2 mm 6 mps 745 mmHg 80%
09:00 +13°C° 0.2 mm 6 mps 746 mmHg 75%
10:00 +12°C° 0.2 mm 7 mps 746 mmHg 71%
11:00 +14°C° 0.2 mm 6 mps 746 mmHg 68%
12:00 +15°C° 0.2 mm 6 mps 746 mmHg 64%
13:00 +15°C° 0.2 mm 6 mps 746 mmHg 61%
14:00 +15°C° 0.3 mm 6 mps 746 mmHg 64%
15:00 +15°C° 0.3 mm 6 mps 746 mmHg 67%
16:00 +14°C° 0.3 mm 6 mps 746 mmHg 70%
17:00 +14°C° 0.3 mm 5 mps 747 mmHg 75%
18:00 +13°C° 0.3 mm 5 mps 747 mmHg 79%
19:00 +12°C° 0.3 mm 4 mps 747 mmHg 83%
20:00 +11°C° 0 mm 4 mps 748 mmHg 87%
21:00 +10°C° 0 mm 4 mps 748 mmHg 90%
22:00 +8°C° 0 mm 4 mps 748 mmHg 94%
23:00 +7°C° 0 mm 4 mps 749 mmHg 95%

19 May, Wednesday

Time Temperature Precipitation Wind Pressure Humidity
00:00 +7°C° 0 mm 4 mps 749 mmHg 95%
01:00 +7°C° 0 mm 4 mps 749 mmHg 96%
02:00 +7°C° 0 mm 4 mps 749 mmHg 96%
03:00 +7°C° 0 mm 4 mps 750 mmHg 97%
04:00 +7°C° 0 mm 4 mps 750 mmHg 97%
05:00 +7°C° 0.1 mm 4 mps 750 mmHg 95%
06:00 +8°C° 0.1 mm 4 mps 750 mmHg 93%
07:00 +9°C° 0.1 mm 5 mps 751 mmHg 91%
08:00 +9°C° 0.3 mm 5 mps 751 mmHg 87%
09:00 +10°C° 0.3 mm 5 mps 751 mmHg 84%
10:00 +10°C° 0.3 mm 6 mps 751 mmHg 80%
11:00 +13°C° 0 mm 6 mps 751 mmHg 70%
12:00 +14°C° 0 mm 6 mps 751 mmHg 61%
13:00 +15°C° 0 mm 5 mps 751 mmHg 51%
14:00 +15°C° 0.1 mm 5 mps 751 mmHg 55%
15:00 +15°C° 0.1 mm 5 mps 751 mmHg 58%
16:00 +14°C° 0.1 mm 5 mps 751 mmHg 61%
17:00 +13°C° 0.2 mm 5 mps 751 mmHg 68%
18:00 +12°C° 0.2 mm 4 mps 751 mmHg 76%
19:00 +11°C° 0.2 mm 3 mps 751 mmHg 83%
20:00 +10°C° 0 mm 4 mps 752 mmHg 86%
21:00 +8°C° 0 mm 4 mps 752 mmHg 89%
22:00 +7°C° 0 mm 4 mps 752 mmHg 93%
23:00 +7°C° 0 mm 4 mps 752 mmHg 92%

20 May, Thursday

Time Temperature Precipitation Wind Pressure Humidity
00:00 +7°C° 0 mm 5 mps 752 mmHg 92%
01:00 +7°C° 0 mm 5 mps 752 mmHg 91%
02:00 +7°C° 0 mm 5 mps 752 mmHg 92%
03:00 +6°C° 0 mm 5 mps 752 mmHg 93%
04:00 +6°C° 0 mm 5 mps 752 mmHg 94%
05:00 +7°C° 0 mm 5 mps 752 mmHg 90%
06:00 +8°C° 0 mm 5 mps 753 mmHg 86%
07:00 +9°C° 0 mm 6 mps 753 mmHg 82%
08:00 +10°C° 0.1 mm 6 mps 753 mmHg 75%
09:00 +11°C° 0.1 mm 6 mps 752 mmHg 69%
10:00 +13°C° 0.1 mm 6 mps 752 mmHg 62%
11:00 +13°C° 0.1 mm 6 mps 752 mmHg 61%
12:00 +14°C° 0.1 mm 5 mps 752 mmHg 59%
13:00 +14°C° 0.1 mm 5 mps 751 mmHg 57%
14:00 +15°C° 0.1 mm 4 mps 751 mmHg 56%
15:00 +15°C° 0.1 mm 4 mps 751 mmHg 55%
16:00 +15°C° 0.1 mm 4 mps 750 mmHg 54%
17:00 +14°C° 0 mm 3 mps 750 mmHg 58%
18:00 +13°C° 0 mm 3 mps 749 mmHg 63%
19:00 +13°C° 0 mm 2 mps 749 mmHg 68%
20:00 +13°C° 0 mm 2 mps 748 mmHg 66%
21:00 +13°C° 0 mm 2 mps 748 mmHg 65%
22:00 +11°C° 0 mm 3 mps 748 mmHg 64%
23:00 +12°C° 0.1 mm 2 mps 747 mmHg 70%

21 May, Friday

Time Temperature Precipitation Wind Pressure Humidity
00:00 +12°C° 0.1 mm 2 mps 746 mmHg 75%
01:00 +10°C° 0.1 mm 2 mps 746 mmHg 81%
02:00 +11°C° 0 mm 3 mps 745 mmHg 78%
03:00 +10°C° 0 mm 5 mps 744 mmHg 74%
04:00 +10°C° 0 mm 6 mps 744 mmHg 71%
05:00 +11°C° 0.1 mm 7 mps 744 mmHg 71%
06:00 +11°C° 0.1 mm 7 mps 745 mmHg 72%
07:00 +12°C° 0.1 mm 8 mps 745 mmHg 72%
08:00 +12°C° 0.2 mm 9 mps 745 mmHg 68%
09:00 +13°C° 0.2 mm 9 mps 745 mmHg 65%
10:00 +13°C° 0.2 mm 9 mps 746 mmHg 62%
11:00 +13°C° 0.1 mm 9 mps 746 mmHg 61%
12:00 +13°C° 0.1 mm 9 mps 746 mmHg 61%
13:00 +13°C° 0.1 mm 8 mps 746 mmHg 61%
14:00 +13°C° 0.1 mm 8 mps 746 mmHg 61%
15:00 +15°C° 0.1 mm 8 mps 746 mmHg 61%
16:00 +15°C° 0.1 mm 8 mps 746 mmHg 61%
17:00 +13°C° 0 mm 8 mps 746 mmHg 64%
18:00 +12°C° 0 mm 7 mps 747 mmHg 68%
19:00 +10°C° 0 mm 7 mps 747 mmHg 71%
20:00 +9°C° 0.1 mm 7 mps 747 mmHg 75%
21:00 +9°C° 0.1 mm 6 mps 748 mmHg 80%
22:00 +8°C° 0.1 mm 6 mps 749 mmHg 84%
23:00 +7°C° 0.1 mm 6 mps 749 mmHg 84%
Show more

We Need Your Consent

Meteoprog and our Service Providers may store and access personal data such as cookies, device identifiers or other similar technologies on your device and process such data to personalise content and ads, as well as provide social media features and to analyse the traffic.

  • Store and/or access information on your device

    Cookies, device identifiers or other information can be stored or accessed on your device for the purposes indicated above.

  • Personalised ads and content, ad and content measurement, audience insights, and products development

    Ads and content can be personalised based on a profile. More data can be added to better personalise ads and content. Ad and content performance can be measured. Insights about the audience who saw the ads and content can be derived. Such data can be used to develop or improve user’s experience, systems and software.

By clicking ‘I Agree’ you will allow the use of indicated cookies, device identifiers, web beacons or other similar technologies. Your settings can be changed in the browser on your device.

For certain purposes, legitimate interests may be relied on, rather than consent. You can read more about this in our Privacy and Cookie Policy.